[[{"header":{"parameterUnit":"m.s-1","parameterCategory":1,"la1":30.2991,"la2":30.254,"lo1":-89.0895,"lo2":-89.0444,"dy":0.0017,"dx":0.0017,"nx":28,"ny":28,"refTime":"2023-07-28T09:00:00:Z","depth":0,"parameterNumber":2,"parameterNumberName":"U-component_of_WINDS"},"data":[0,0,0,0,0,0,0,0,0,0,0,0,0,0,0,0,0,0,0,0,0,0,0,0,0,0,0,0,0,0,0,0,0,0,0,0,0,0,0,0,0,0,0,0,0,0,0,0,0,0,0,0,0,0,0,0,0,0,3.7523,3.7523,0,3.7562,3.7562,3.7562,3.7457,3.7454,3.745,3.7447,3.7489,3.7493,3.7497,0,0,0,0,0,0,0,0,0,0,0,0,0,3.7357,3.736,3.7523,3.7523,3.7524,3.7562,3.7562,3.7563,3.7457,3.7453,3.7449,3.7446,3.7488,3.7493,3.7498,0,0,0,0,0,0,0,0,0,0,0,0,0,3.7416,3.7361,3.7523,3.7476,3.7472,3.7561,3.7562,3.7563,3.7458,3.7453,3.7448,3.7444,3.7486,3.7492,3.7498,3.7636,0,0,3.7517,3.752,0,0,0,0,0,0,0,0,3.7412,3.7422,3.7482,3.7479,3.7475,3.7499,3.7519,3.7587,3.746,3.7464,3.7447,3.7441,3.7497,3.7502,3.752,3.7638,3.7639,3.7518,3.7522,3.7525,3.7526,0,0,0,0,0,0,0,3.7408,3.742,3.7538,3.7483,3.7479,3.7452,3.7455,3.7531,3.7507,3.7463,3.7455,3.7461,3.7494,3.7514,3.752,3.764,3.7518,3.7523,3.7527,3.753,3.7868,3.7873,0,0,0,0,0,0,3.741,3.7417,3.7537,3.7539,3.7431,3.7459,3.7463,3.7497,3.7506,3.7503,3.7465,3.7456,3.7506,3.7513,3.7521,3.7679,3.7524,3.753,3.7534,3.7863,3.7869,3.7875,0,0,0,0,0,0,3.7407,3.7422,3.7535,3.7476,3.7488,3.7468,3.7506,3.75,3.752,3.7508,3.7503,3.7491,3.7502,3.7512,3.7607,3.7679,3.7533,3.7539,3.7857,3.7865,3.7872,3.7999,0,0,0,0,0,0,3.7403,3.7422,3.7474,3.7478,3.7492,3.7621,3.7511,3.7504,3.7531,3.7519,3.753,3.7528,3.7499,3.7598,3.7613,3.7685,3.7544,3.785,3.786,3.7869,3.7988,3.801,3.8029,0,0,0,0,0,3.7397,3.751,3.7477,3.7492,3.7557,3.7625,3.7633,3.7598,3.7537,3.7589,3.7581,3.7527,3.7669,3.7609,3.7625,3.77,3.7845,3.7857,3.7869,3.7979,3.8006,3.8028,0,0,0,0,0,0,3.7516,3.7509,3.7473,3.759,3.7609,3.7607,3.7672,3.7628,3.7665,3.7652,3.7607,3.7611,3.7713,3.7716,3.7649,3.7831,3.7747,3.7762,3.7825,3.7851,3.7871,3.7867,3.7549,0,0,0,0,0,3.7556,3.7612,3.7603,3.7707,3.7718,3.7694,3.7722,3.7693,3.7711,3.7718,3.7717,3.7737,3.7785,3.7818,3.7863,3.7988,3.7988,3.8048,3.8068,3.8085,3.8098,3.8161,3.8187,3.7913,3.7913,3.7913,0,0,3.7639,3.7642,3.768,3.7731,3.7742,3.78,3.7701,3.7768,3.781,3.7729,3.7816,3.7817,3.7835,3.7945,3.7993,3.7951,3.8174,3.81,3.8114,3.8118,3.8176,3.8202,3.8225,3.7921,3.792,3.7919,0,0,3.7818,3.7828,3.7913,3.7926,3.7943,3.7925,3.7946,3.7951,3.7947,3.8034,3.7973,3.8023,3.8109,3.8123,3.8142,3.8324,3.8275,3.834,3.8446,3.8508,3.8529,3.8548,3.861,3.8633,3.8354,3.8354,3.8355,0,3.7919,3.8004,3.7963,3.8032,3.8055,3.7983,3.8068,3.8082,3.8114,3.8131,3.8083,3.8186,3.8194,3.8304,3.8348,3.8367,3.8388,3.8338,3.853,3.8548,3.8565,3.8623,3.8647,3.8362,3.8361,3.836,3.8359,0,3.8125,3.8185,3.8252,3.8282,3.8312,3.839,3.836,3.8396,3.8363,3.8351,3.8439,3.8446,3.8488,3.8513,3.8483,3.8618,3.859,3.8537,3.8451,3.8599,3.8653,3.8676,3.8373,3.837,3.8368,3.8366,0,0,3.8382,3.8385,3.8411,3.8421,3.8434,3.8479,3.8552,3.8593,3.8623,3.8647,3.8705,3.8778,3.8727,3.8749,3.872,3.8775,3.8914,3.8714,3.8713,3.8748,3.906,3.9098,3.9124,3.8882,3.8886,3.889,3.9057,0,3.8556,3.868,3.8644,3.8768,3.8821,3.8752,3.8815,3.8829,3.8819,3.8862,3.8851,3.8902,3.8833,3.8845,3.8896,3.8886,3.8976,3.8874,3.8935,3.8937,3.893,3.9153,3.9194,3.9352,3.9078,3.9082,3.9084,0,3.8777,3.8806,3.8935,3.8935,3.8956,3.9014,3.9045,3.9088,3.9102,3.909,3.9113,3.9072,3.9142,3.9057,3.9152,3.9084,3.9107,3.9106,3.9111,3.9113,3.9018,3.9159,3.9402,3.9424,3.9118,3.9115,3.9113,0,3.8946,3.9019,3.9104,3.9116,3.912,3.9161,3.9164,3.9173,3.9198,3.9227,3.9242,3.928,3.93,3.9329,3.9298,3.924,3.9397,3.931,3.9388,3.9389,3.9423,3.9421,3.967,3.9442,3.9442,3.9442,3.9441,0,3.9144,3.9225,3.918,3.9233,3.932,3.9278,3.9366,3.9361,3.9369,3.9419,3.9362,3.941,3.9368,3.9412,3.9388,3.9469,3.9479,3.9471,3.9463,3.9474,3.9475,3.9487,3.9474,3.9448,3.9446,3.9445,3.9444,0,3.9348,3.9322,3.9409,3.9404,3.9404,3.9469,3.9464,3.9512,3.9497,3.956,3.9573,3.9549,3.9597,3.957,3.962,3.9604,3.9708,3.9687,3.9703,3.9696,3.9774,3.9766,4.0037,4.0069,3.9824,3.9827,3.9829,0,3.9474,3.9534,3.9534,3.9562,3.9569,3.9616,3.964,3.9601,3.9628,3.9647,3.9692,3.9735,3.9767,3.9847,3.9834,3.9872,3.9849,3.9942,3.9855,3.9863,3.9847,3.9842,3.9847,3.9959,3.9962,3.9964,3.9966,0,3.97,3.9683,3.972,3.9752,3.9782,3.9806,3.9826,3.9852,3.9812,3.9846,3.9894,3.9918,3.9968,4.001,4.0042,4.0045,3.9998,3.9994,4.0013,4.0024,4.0029,4.0024,3.9747,3.9987,3.9985,3.9984,3.9982,3.9982,3.9866,3.9915,3.9921,3.9964,3.9973,3.9992,4.0035,4.0024,4.0063,4.0099,4.0073,4.0129,4.0138,4.0175,4.0184,4.0226,4.0189,4.0218,4.0224,4.0231,4.024,4.0024,4.0232,4.0231,4.0231,4.023,4.023,0,4.0086,4.0086,4.0126,4.0152,4.0185,4.0138,4.0156,4.0187,4.0236,4.0248,4.028,4.0333,4.0373,4.0363,4.0399,4.0435,4.0414,4.0445,4.0441,4.0442,4.0274,4.0252,4.0461,4.0461,4.0461,4.0461,4.0461,4.0461,4.0204,4.0282,4.0266,4.0348,4.0347,4.04,4.0414,4.043,4.0439,4.05,4.0532,4.0525,4.0528,4.0563,4.0597,4.0593,4.0608,4.0646,4.0634,4.0477,4.0454,4.0432,4.0411,4.065,4.0651,4.0798,4.0799,4.08]},{"header":{"parameterUnit":"m.s-1","parameterCategory":1,"la1":30.2991,"la2":30.254,"lo1":-89.0895,"lo2":-89.0444,"dy":0.0017,"dx":0.0017,"nx":28,"ny":28,"refTime":"2023-07-28T09:00:00:Z","depth":0,"parameterNumber":3,"parameterNumberName":"V-component_of_WINDS"},"data":[0,0,0,0,0,0,0,0,0,0,0,0,0,0,0,0,0,0,0,0,0,0,0,0,0,0,0,0,0,0,0,0,0,0,0,0,0,0,0,0,0,0,0,0,0,0,0,0,0,0,0,0,0,0,0,0,0,0,2.4482,2.4483,0,2.456,2.4561,2.4562,2.4549,2.4547,2.4546,2.4545,2.4624,2.4627,2.463,0,0,0,0,0,0,0,0,0,0,0,0,0,2.432,2.4323,2.4482,2.4483,2.4484,2.456,2.4561,2.4562,2.4549,2.4547,2.4546,2.4544,2.4623,2.4626,2.4631,0,0,0,0,0,0,0,0,0,0,0,0,0,2.4394,2.4324,2.4482,2.4487,2.4488,2.456,2.4561,2.4562,2.4549,2.4547,2.4545,2.4543,2.4621,2.4626,2.4631,2.4703,0,0,2.4646,2.4649,0,0,0,0,0,0,0,0,2.4389,2.4399,2.4485,2.4486,2.4488,2.4542,2.4533,2.4609,2.455,2.4526,2.4545,2.4542,2.4598,2.4605,2.4624,2.4707,2.471,2.4647,2.465,2.4652,2.4654,0,0,0,0,0,0,0,2.4384,2.4396,2.4513,2.4486,2.4488,2.4484,2.4492,2.4547,2.4572,2.4528,2.4527,2.4536,2.4599,2.4619,2.4626,2.4711,2.4647,2.4651,2.4654,2.4656,2.4854,2.4856,0,0,0,0,0,0,2.4378,2.4392,2.451,2.4515,2.4433,2.4489,2.4498,2.4527,2.4572,2.4577,2.4538,2.4536,2.4612,2.462,2.4629,2.4714,2.4652,2.4657,2.466,2.4852,2.4854,2.4857,0,0,0,0,0,0,2.4375,2.4389,2.4507,2.4453,2.4468,2.4494,2.4526,2.453,2.455,2.458,2.4584,2.4555,2.461,2.4621,2.4684,2.4716,2.4659,2.4664,2.4849,2.4852,2.4855,2.4886,0,0,0,0,0,0,2.437,2.4388,2.4416,2.4454,2.4471,2.4562,2.4529,2.4533,2.4559,2.4556,2.4596,2.4601,2.461,2.4676,2.4689,2.4722,2.4668,2.4846,2.485,2.4854,2.4882,2.489,2.4896,0,0,0,0,0,2.4364,2.4421,2.4417,2.4432,2.4507,2.4564,2.4574,2.4583,2.4562,2.459,2.4608,2.46,2.4711,2.4683,2.4697,2.4732,2.4844,2.4849,2.4854,2.4879,2.4888,2.4896,0,0,0,0,0,0,2.4387,2.4427,2.4422,2.4494,2.4525,2.4562,2.4597,2.4593,2.4631,2.4627,2.4636,2.4645,2.4708,2.4727,2.4695,2.4803,2.4774,2.4783,2.4788,2.4798,2.4805,2.4799,2.4672,0,0,0,0,0,2.44,2.4443,2.4476,2.4536,2.4552,2.4572,2.4597,2.4601,2.4634,2.4648,2.4671,2.4703,2.4745,2.4773,2.4813,2.4885,2.4892,2.4916,2.4923,2.4929,2.4935,2.4972,2.4983,2.4873,2.4873,2.4873,0,0,2.4427,2.4455,2.4482,2.4541,2.4566,2.4609,2.4583,2.4631,2.4663,2.4655,2.4715,2.4733,2.4769,2.4836,2.4867,2.4853,2.4967,2.4935,2.4939,2.4943,2.4979,2.4989,2.4998,2.4876,2.4876,2.4875,0,0,2.45,2.4526,2.4577,2.4603,2.4641,2.4653,2.4666,2.4703,2.4714,2.4774,2.4768,2.4807,2.4879,2.4905,2.4927,2.5008,2.5001,2.5021,2.5058,2.5094,2.5103,2.511,2.5138,2.5147,2.5027,2.5027,2.5028,0,2.4529,2.4596,2.4604,2.4653,2.4678,2.4672,2.4723,2.4748,2.4797,2.4814,2.4799,2.4888,2.4913,2.4984,2.5004,2.5023,2.5036,2.5016,2.5101,2.5109,2.5116,2.5142,2.5152,2.503,2.5029,2.5029,2.5029,0,2.4629,2.4675,2.4712,2.4759,2.4789,2.4839,2.4854,2.4883,2.4884,2.4898,2.4959,2.4987,2.5033,2.505,2.5052,2.5122,2.5112,2.5099,2.507,2.5128,2.5153,2.5163,2.5033,2.5032,2.5031,2.5031,0,0,2.4718,2.4768,2.4782,2.4802,2.4843,2.4878,2.4927,2.4971,2.4995,2.5029,2.5069,2.513,2.5118,2.5143,2.5148,2.518,2.5239,2.5162,2.5163,2.5174,2.5316,2.5324,2.5336,2.5235,2.5237,2.5239,2.5312,0,2.4793,2.4879,2.4888,2.4965,2.5006,2.5,2.5043,2.5072,2.5086,2.5123,2.5138,2.518,2.5162,2.5176,2.5208,2.5225,2.5268,2.522,2.5271,2.5273,2.5261,2.5349,2.5359,2.5427,2.5322,2.5323,2.5325,0,2.4893,2.4928,2.5009,2.5043,2.506,2.5098,2.5138,2.5174,2.5206,2.5214,2.5242,2.5242,2.5291,2.5261,2.5328,2.5296,2.5317,2.5328,2.5331,2.5335,2.5301,2.5354,2.5449,2.5458,2.534,2.5339,2.5338,0,2.4947,2.5016,2.5072,2.509,2.5131,2.5158,2.5176,2.5206,2.5232,2.5267,2.5283,2.5323,2.5345,2.5376,2.5386,2.5364,2.5452,2.5423,2.5459,2.5458,2.5477,2.5475,2.5575,2.5493,2.5493,2.5493,2.5492,0,2.5029,2.5078,2.5097,2.5132,2.5186,2.5195,2.5249,2.5266,2.5292,2.533,2.5327,2.5362,2.5375,2.5411,2.542,2.5473,2.5483,2.549,2.5491,2.5489,2.5488,2.5502,2.5497,2.5495,2.5495,2.5494,2.5494,0,2.5099,2.5114,2.5175,2.5208,2.5217,2.5256,2.5284,2.5317,2.533,2.5377,2.5389,2.5409,2.5452,2.5466,2.5518,2.5523,2.5585,2.5583,2.5574,2.5573,2.5607,2.5603,2.5718,2.5733,2.5643,2.5644,2.5644,0,2.515,2.5187,2.5224,2.5248,2.5267,2.5308,2.5333,2.5343,2.537,2.5408,2.5436,2.5479,2.5513,2.5581,2.5601,2.564,2.5638,2.5675,2.5644,2.564,2.5636,2.5633,2.5636,2.5681,2.5682,2.5683,2.5683,0,2.5237,2.5242,2.5279,2.5319,2.5349,2.538,2.5411,2.5431,2.5445,2.5475,2.5518,2.5545,2.5597,2.5639,2.5679,2.5696,2.5692,2.5693,2.5703,2.5701,2.5693,2.5696,2.5588,2.569,2.569,2.5689,2.5689,2.5689,2.5298,2.533,2.5361,2.5401,2.5425,2.5453,2.5485,2.5502,2.5539,2.5582,2.5586,2.5632,2.5662,2.5715,2.5735,2.577,2.576,2.5775,2.5778,2.5781,2.5783,2.5689,2.5778,2.5778,2.5778,2.5778,2.5777,0,2.5384,2.5403,2.544,2.5482,2.5514,2.5507,2.554,2.5567,2.5608,2.5636,2.567,2.5719,2.5759,2.5781,2.582,2.5845,2.5844,2.5855,2.5852,2.5856,2.5791,2.5778,2.5855,2.5855,2.5855,2.5855,2.5855,2.5855,2.5432,2.5486,2.5494,2.5559,2.5578,2.5623,2.5642,2.5668,2.569,2.5745,2.5778,2.5792,2.5818,2.5859,2.5895,2.59,2.5914,2.5926,2.593,2.5869,2.5861,2.5853,2.5841,2.593,2.593,2.5992,2.5993,2.5993]}]]